www.pogodaiklimat.ru

Погода и климат >> Архив погоды >> Словакия >> Пьештяни


ПОГОДА в Пьештяни

  • Прогноз погоды в Пьештяни
  • Монитор погоды в Пьештяни

АРХИВ ПОГОДЫ в Пьештяни

Время (UTC), дата Ветер
(напр.,м/с)
 
Видим.   Явления Облачность Т
(С)
Тd
(С)
f
(%)
Тe
(С)
Тes
(С)
Комфортность P
(гПа)
Po
(гПа)
Тmin
(С)
Tmax
(С)
R
(мм)
R24
(мм)
S
(см)
22 11.06 ЮВ 4 н/о н/о +24.9 +16.9 61 +29 +29 душно 1012.6 993.9
23 11.06 ЮВ 5 н/о н/о +24.1 +17.1 65 +28 +28 душно 1012.4 993.7
00 12.06 В 7 н/о н/о +23.6 +17.1 67 +27 +27 жарко 1011.9 993.2
01 12.06 ЮВ 7 н/о н/о +23.6 +16.6 65 +27 +27 жарко 1011.8 993.1
02 12.06 ЮВ 6 н/о н/о +23.0 +16.3 66 +28 +28 душно 1011.7 992.9
03 12.06 ЮВ 4 н/о н/о +22.5 +16.3 68 +27 +27 душно 1011.8 993.0
04 12.06 В 5 40 км 3/0
[Ci fib]
+23.1 +16.2 65 +28 +28 душно 1011.9 993.1
05 12.06 ЮВ 4 40 км 3/0
[Ac lent Ci fib]
+23.8 +16.6 64 +27 +29 жарко 1012.6 993.9
06 12.06 ЮВ 7 40 км 4/3 1500 м
[Sc Ci fib]
+24.3 +17.3 65 +28 +29 душно 1013.0 994.3 +22.4
07 12.06 ЮВ 7 40 км 1/1 840 м
[Cu hum Ci fib]
+25.3 +18.3 65 +30 +32 душно 1013.2 994.5
08 12.06 ЮВ 6 40 км 1/1 870 м
[Cu med, cong Ci fib]
+25.9 +18.6 64 +31 +35 очень
душно
1013.1 994.5
09 12.06 ЮВ 6 40 км 1/1 1050 м
[Cu med, cong Ci fib]
+27.2 +18.8 60 +32 +38 очень
душно
1012.9 994.4
10 12.06 ЮВ 7 40 км 1/1 1110 м
[Cu med, cong Ci fib]
+27.9 +18.6 57 +33 +37 очень
душно
1012.8 994.3
11 12.06 ЮВ 8 40 км 3/1 1300 м
[Cu med, cong Ac lent Ci fib]
+28.3 +17.5 52 +32 +35 душно 1012.6 994.1
12 12.06 ЮВ 8 40 км 3/1 1440 м
[Cu med, cong Ac lent Ci fib]
+29.5 +16.4 45 +33 +35 душно 1012.1 993.7
13 12.06 ЮВ 7 40 км 3/1 1500 м
[Cu med, cong Ac lent Ci fib]
+29.8 +17.0 46 +33 +37 душно 1011.9 993.5
14 12.06 ЮВ 7 40 км 1/1 1500 м
[Cu med, cong Ci fib]
+29.9 +17.4 47 +34 +37 очень
душно
1011.6 993.2
15 12.06 ЮВ 6 40 км 1/1 1500 м
[Cu hum]
+29.9 +17.7 48 +34 +37 очень
душно
1011.1 992.8
16 12.06 ЮВ 6 40 км 1/1 1500 м
[Cu hum]
+29.7 +17.6 48 +34 +35 очень
душно
1010.6 992.3
17 12.06 ЮВ 5 40 км 1/1 1500 м
[Sc diur, vesp Ci fib]
+29.3 +17.2 48 +33 +34 душно 1010.6 992.2
18 12.06 ЮВ 3 40 км 1/0
[Ci fib]
+27.9 +18.0 55 +32 +33 душно 1010.6 992.2 +30.4
19 12.06 ЮВ 2 40 км 1/0
[Ci sp]
+27.0 +17.8 57 +31 +31 душно 1010.9 992.4
20 12.06 ЮВ 3 40 км 1/0
[Ci sp]
+26.3 +18.2 61 +31 +31 душно 1011.4 992.8
21 12.06 ЮВ 5 н/о н/о +25.6 +17.8 62 +30 +30 душно 1011.9 993.3
22 12.06 ЮВ 4 н/о н/о +24.7 +17.7 65 +29 +29 душно 1012.6 993.9
23 12.06 В 4 н/о н/о +24.1 +17.4 66 +28 +28 душно 1012.5 993.8
00 13.06 В 4 н/о н/о +23.3 +17.1 68 +28 +28 душно 1012.6 993.8
01 13.06 ЮВ 3 н/о н/о +23.1 +16.9 68 +28 +28 душно 1012.5 993.7
02 13.06 ЮВ 4 н/о н/о +23.5 +16.3 64 +27 +27 душно 1012.3 993.5
03 13.06 В 5 н/о н/о +23.9 +16.2 62 +27 +27 жарко 1012.1 993.4
04 13.06 ЮВ 3 60 км 1/0
[Ci fib]
+24.3 +16.3 61 +28 +28 душно 1012.1 993.4
05 13.06 В 4 60 км 1/0
[Ac cast Ci fib]
+25.2 +16.6 59 +29 +30 душно 1012.0 993.3
06 13.06 ЮВ 4 60 км 1/0 2000 м
[Ac cast]
+26.0 +17.1 58 +30 +33 душно 1012.4 993.8 +23.0
07 13.06 ЮВ 6 60 км 1/0
[Ac cast]
+26.7 +18.3 60 +31 +35 душно 1012.6 994.0
08 13.06 ЮВ 6 60 км 1/1 1200 м
[Cu hum Ac cast]
+28.0 +17.0 51 +32 +36 душно 1012.7 994.2
09 13.06 ЮВ 7 60 км 1/1 1350 м
[Cu hum Ac cast]
+29.5 +16.7 46 +33 +37 душно 1012.8 994.4
10 13.06 ЮВ 6 60 км 1/1 1500 м
[Cu hum Ac cast]
+29.9 +17.4 47 +34 +40 очень
душно
1012.8 994.4
11 13.06 ЮВ 6 60 км 1/1 1500 м
[Cu hum]
+30.1 +17.6 47 +34 +41 очень
душно
1012.6 994.2
12 13.06 ЮВ 6 60 км 1/1 1500 м
[Cu hum Ci fib]
+30.9 +17.6 45 +35 +41 очень
душно
1012.1 993.8
13 13.06 ЮВ 6 60 км 3/1 1500 м
[Cu hum Ci ing]
+31.1 +18.8 48 +36 +41 очень
душно
1012.1 993.8
14 13.06 ЮВ 4 60 км 5/1 1500 м
[Cu med, cong Ci ing]
+29.9 +18.7 51 +35 +41 очень
душно
1011.9 993.6
15 13.06 ЮВ 5 60 км 4/1 1500 м
[Cu med, cong Ci fib]
+31.2 +18.9 48 +36 +40 очень
душно
1011.4 993.1
16 13.06 ЮВ 6 50 км 4/1 1500 м
[Cu med, cong Ci sp]
+30.3 +18.8 50 +35 +37 очень
душно
1010.8 992.5
17 13.06 ЮВ 5 50 км 5/3 1500 м
[Cu med, cong Ci fib]
+29.5 +19.2 54 +35 +36 очень
душно
1010.4 992.1
18 13.06 В 5 50 км 6/4 1500 м
[Cu med, cong Ci sp]
+28.5 +19.2 57 +34 +34 очень
душно
1011.3 992.9 +31.6
19 13.06 ЮВ 3 50 км 6/3 1500 м
[Cb calv Ci sp]
+27.6 +19.2 60 +33 +33 очень
душно
1011.9 993.4
20 13.06 ЮВ 3 50 км 6/1 1500 м
[Cb calv Ci fib]
+26.2 +19.1 65 +31 +31 очень
душно
1012.2 993.6
21 13.06 В 2 н/о н/о +26.1 +19.0 65 +31 +31 очень
душно
1013.3 994.7
22 13.06 С 2 н/о н/о +23.4 +18.9 76 +30 +30 очень
душно
1013.4 994.6
23 13.06 н/о н/о +24.7 +18.6 69 1013.4 994.7
00 14.06 нст 1 н/о н/о +19.8 +17.6 87 +24 +24 комфорт 1013.6 994.6
01 14.06 С 2 н/о н/о +20.3 +18.2 88 +24 +24 комфорт 1013.9 994.9
02 14.06 С 3 н/о н/о +19.8 +18.1 90 +23 +23 комфорт 1014.7 995.7
03 14.06 С 2 н/о н/о +18.6 +17.6 94 +20 +20 1015.3 996.2
04 14.06 С 2 20 км 3/0
[Ci sp]
+18.5 +17.5 94 +20 +20 1015.6 996.5
05 14.06 С 3 30 км 1/0
[Ci sp]
+21.5 +18.3 82 +26 +28 душно 1015.6 996.7
06 14.06 С 4 35 км 3/0
[Ci sp]
+23.8 +19.5 77 +29 +32 душно 1016.3 997.5 +17.2
07 14.06 СЗ 3 35 км 1/0
[Ci sp]
+26.6 +20.0 67 +33 +40 очень
душно
1016.5 997.9
08 14.06 35 км 1/1 900 м
[Cu hum Ci fib]
+27.6 +18.6 58 1016.9 998.3
09 14.06 нст 2 40 км 1/1 1050 м
[Cu hum]
+29.6 +19.0 53 +35 +49 очень
душно
1017.0 998.5
10 14.06 40 км 1/1 1200 м
[Cu hum]
+29.7 +15.8 43 1017.1 998.6
11 14.06 40 км 3/3 1350 м
[Cu hum]
+30.6 +15.5 40 1016.9 998.5
12 14.06 нст 2 45 км 1/1 1500 м
[Cu hum]
+31.7 +14.4 35 +33 +49 жарко 1016.8 998.4
13 14.06 45 км 1/1 1500 м
[Cu hum Ci fib]
+32.3 +15.4 36 1016.3 998.0
14 14.06 ЮВ 2 50 км 1/1 1500 м
[Cu hum Ci fib]
+32.0 +14.2 34 +34 +44 душно 1016.1 997.8
15 14.06 В 3 50 км 1/1 1500 м
[Cu hum Ci fib]
+32.5 +13.7 32 +34 +39 очень
жарко
1016.2 997.9
16 14.06 50 км 1/1 1500 м
[Cu med, cong Ci fib]
+31.9 +14.6 35 1015.7 997.4
17 14.06 В 2 50 км 3/1 1500 м
[Cu med, cong Ci fib]
+31.1 +15.6 39 +34 +35 душно 1015.7 997.3
18 14.06 В 2 50 км 3/0
[Ci fib]
+29.3 +17.8 50 +34 +34 очень
душно
1015.4 997.0 +32.6
19 14.06 В 3 45 км 3/0
[Ci fib]
+24.6 +17.8 66 +29 +29 душно 1015.7 997.0
20 14.06 30 км 3/0
[Ci fib]
+22.3 +15.2 64 1016.8 997.9
21 14.06 С 2 н/о н/о +20.9 +15.5 71 +25 +25 комфорт 1016.9 997.9
22 14.06 С 2 н/о н/о +20.2 +15.4 74 +23 +23 комфорт 1016.4 997.3
23 14.06 С 3 н/о н/о +19.1 +16.0 82 +21 +21 комфорт 1016.1 997.0
00 15.06 нст 2 н/о н/о +18.1 +15.9 87 +19 +19 1015.9 996.7
01 15.06 н/о н/о +17.0 +15.5 91 1015.8 996.6
02 15.06 СЗ 2 н/о н/о +16.5 +15.4 93 +17 +17 1015.5 996.2
03 15.06 н/о н/о +16.4 +15.3 93 1015.7 996.4
04 15.06 СЗ 2 20 км 4/0
[Ci fib]
+17.4 +16.1 92 +18 +18 1015.6 996.4
05 15.06 СЗ 2 20 км 4/0
[Ci fib]
+19.7 +17.5 87 +23 +25 комфорт 1015.0 996.0
06 15.06 нст 1 30 км 4/0
[Ci fib]
+25.7 +19.4 68 +31 +37 очень
душно
1014.3 995.7 +16.1
07 15.06 ЮВ 7 30 км 4/0
[Ci fib]
+26.5 +19.2 64 +32 +34 очень
душно
1014.1 995.5
08 15.06 ЮВ 5 30 км 5/0
[Cs]
+28.4 +18.5 55 +33 +39 очень
душно
1014.1 995.6
09 15.06 ЮВ 5 30 км 5/0
[Cs]
+29.7 +16.9 46 +33 +41 душно 1013.8 995.4
10 15.06 ЮВ 7 40 км 6/0
[Cs]
+30.8 +15.3 39 +33 +37 душно 1013.6 995.2
11 15.06 ЮВ 6 40 км 8/0
[Cs]
+30.3 +15.2 40 +33 +39 душно 1013.5 995.1
12 15.06 Ю 4 40 км 6/0
[Cs]
+30.7 +14.4 37 +33 +43 душно 1013.0 994.7
13 15.06 ЮВ 7 40 км 4/0
[Cs]
+31.4 +13.7 34 +33 +36 жарко 1012.6 994.3
14 15.06 ЮВ 5 40 км 4/0
[Cs]
+32.2 +13.5 32 +33 +39 жарко 1012.0 993.8
15 15.06 ЮВ 5 40 км 4/0
[Cs]
+32.0 +11.2 28 +32 +36 жарко 1011.9 993.6
16 15.06 ЮВ 5 40 км 4/0
[Ci fib]
+31.9 +12.7 31 +33 +35 жарко 1011.4 993.1
17 15.06 ЮВ 4 40 км 4/0
[Ci fib]
+30.8 +14.0 36 +32 +33 жарко 1010.7 992.4
18 15.06 ЮВ 3 40 км 6/0
[Cs]
+29.1 +15.6 44 +32 +32 душно 1010.4 992.0 +32.3
19 15.06 В 2 40 км 6/0
[Cs]
+27.6 +16.0 49 +31 +31 душно 1011.0 992.5
20 15.06 ЮВ 2 30 км 5/0
[Cs]
+26.7 +16.1 52 +30 +30 душно 1011.6 993.1
21 15.06 В 3 н/о н/о +24.6 +16.9 62 +28 +28 душно 1012.0 993.3
22 15.06 В 3 н/о н/о +25.1 +17.3 62 +29 +29 душно 1012.2 993.5
23 15.06 н/о н/о +22.5 +18.3 77 1012.3 993.5
00 16.06 нст 1 н/о н/о +20.5 +17.9 85 +25 +25 комфорт 1012.0 993.1
01 16.06 С 3 н/о н/о +21.7 +17.7 78 +26 +26 душно 1012.3 993.4
02 16.06 н/о н/о +19.9 +17.5 86 1012.1 993.1
03 16.06 С 3 н/о н/о +19.4 +17.2 87 +22 +22 комфорт 1012.5 993.5
04 16.06 30 км 5/0
[Ac As]
+20.7 +17.9 84 1012.7 993.8
05 16.06 С 3 30 км 6/0
[Ac As]
+22.5 +17.9 75 +28 +29 душно 1012.3 993.5
06 16.06 штиль 0 30 км 9/0
[Ac As]
+23.7 +18.4 72 +28 +31 душно 1012.9 994.2 +19.0
07 16.06 40 км 9/3 750 м
[Cu Sc Ac trans]
+23.9 +17.9 69 1013.8 995.0
08 16.06 СЗ 3 30 км 9/4 800 м
[Cu Sc Ac trans]
+22.5 +19.7 84 +29 +32 очень
душно
1014.6 995.8
09 16.06 СЗ 2 30 км {ливн. осадки} 8/1 840 м
[Cu med, cong Ac trans]
+25.4 +18.6 66 +30 +38 душно 1015.0 996.3
10 16.06 З 7 30 км 6/1 900 м
[Cu med, cong Ac trans]
+24.9 +18.4 67 +29 +32 душно 1015.5 996.8
11 16.06 СЗ 6 40 км 3/1 930 м
[Cu med, cong Ac lent Ci fib]
+26.3 +18.7 63 +31 +37 душно 1015.3 996.7
12 16.06 СЗ 3 40 км {ливн. осадки} 1/1 1260 м
[Cu med, cong Ac lent]
+28.2 +17.4 52 +32 +45 душно 1014.5 996.0 0.3
13 16.06 СЗ 8 40 км 1/1 1300 м
[Cu med, cong Ci fib]
+27.5 +17.7 55 +32 +34 очень
душно
1014.2 995.7
14 16.06 З 9 40 км 4/1 1380 м
[Cu med, cong Ac lent Ci fib]
+27.4 +16.1 50 +31 +32 душно 1015.0 996.4
15 16.06 СЗ 6 40 км 6/1 1440 м
[Cu med, cong Ac cuf Ci ing]
+26.7 +16.1 52 +30 +32 душно 1014.4 995.8
16 16.06 СЗ 6 40 км 9/0
[Ac cuf Cs]
+26.2 +17.0 57 +30 +31 душно 1015.0 996.4
17 16.06 СЗ 5 40 км 9/0
[Ac cuf Cs]
+25.2 +18.4 66 +30 +30 душно 1015.4 996.7
18 16.06 СЗ 5 40 км 9/0
[Ac cuf Cs]
+24.1 +18.5 71 +29 +29 душно 1015.5 996.7 +28.9 0.3
19 16.06 С 5 40 км 4/0
[Ac cuf Ci fib]
+22.9 +18.0 74 +28 +28 душно 1015.5 996.7
20 16.06 СЗ 5 30 км 6/0
[Ac lent Ci fib]
+21.8 +17.8 78 +26 +26 душно 1016.8 997.9
21 16.06 СЗ 4 н/о н/о +21.4 +17.0 76 +25 +25 комфорт 1017.3 998.3
22 16.06 С 5 н/о н/о +20.8 +16.0 74 +24 +24 комфорт 1017.7 998.7
23 16.06 С 6 н/о н/о +20.3 +15.7 75 +23 +23 комфорт 1018.0 998.9
00 17.06 С 4 н/о н/о +19.7 +15.8 78 +22 +22 комфорт 1017.9 998.8 0.2
01 17.06 С 5 н/о н/о +19.3 +15.2 77 +21 +21 комфорт 1017.9 998.8
02 17.06 С 4 н/о н/о +18.4 +14.7 79 +19 +19 1018.0 998.8
03 17.06 С 6 н/о н/о +19.1 +14.4 74 +20 +20 1018.2 999.0
04 17.06 С 5 50 км 8/1 600 м
[Cu med, cong Ac lent Ci fib]
+19.0 +14.1 73 +20 +20 1018.3 999.1
05 17.06 С 4 50 км 5/1 720 м
[Cu med, cong Ac lent Ci fib]
+20.6 +14.5 68 +23 +25 комфорт 1018.5 999.4
06 17.06 С 7 50 км 4/1 870 м
[Cu med, cong Ac lent Ci fib]
+21.7 +14.1 62 +25 +26 комфорт 1018.3 999.3 +18.2 0.2
07 17.06 С 8 50 км 5/1 900 м
[Cu med, cong Ac lent Ci fib]
+22.3 +14.7 62 +26 +27 жарко 1018.5 999.5
08 17.06 С 8 50 км 8/1 1000 м
[Cu med, cong Ac lent Ci fib]
+22.6 +14.7 61 +26 +27 жарко 1018.6 999.7
09 17.06 С 9 50 км 4/1 1200 м
[Cu med, cong Ac lent Ci fib]
+24.5 +14.0 52 +27 +28 жарко 1018.4 999.6
10 17.06 С 9 50 км 5/1 1500 м
[Cu med, cong Ac lent Ci fib]
+25.5 +13.4 47 +28 +29 жарко 1018.7 999.9
11 17.06 С 8 50 км 4/1 1500 м
[Cu med, cong Ci fib]
+26.1 +13.9 47 +28 +31 жарко 1018.4 999.7
12 17.06 С 6 50 км 6/1 1500 м
[Cu med, cong Ci sp]
+26.6 +14.4 47 +29 +34 жарко 1018.1 999.4
13 17.06 штиль 0 50 км 6/1 1500 м
[Cu med, cong Ci sp]
+26.8 +14.6 47 +29 +45 жарко 1018.1 999.4
14 17.06 СВ 5 50 км 8/1 1500 м
[Cu med, cong Ci sp]
+27.5 +13.8 43 +30 +34 жарко 1017.7 999.1
15 17.06 С 5 50 км 9/1 1500 м
[Cu med, cong Ac lent Ci sp]
+26.6 +13.7 45 +29 +31 жарко 1017.4 998.7
16 17.06 С 4 50 км 9/1 1500 м
[Cu med, cong Ci sp]
+26.0 +12.8 44 +28 +30 жарко 1017.0 998.3
17 17.06 С 4 50 км 8/0
[Ac lent Ci sp]
+24.5 +13.7 51 +27 +28 жарко 1017.1 998.3
18 17.06 С 3 50 км 8/0
[Ac lent Ci sp]
+22.8 +14.9 61 +27 +27 душно 1017.3 998.4 +27.8
19 17.06 С 4 50 км 8/0
[Ci sp]
+21.6 +14.5 64 +25 +25 комфорт 1017.7 998.7
20 17.06 Ю 1 50 км 8/0
[Ci sp]
+19.4 +14.4 73 +22 +22 комфорт 1018.2 999.1
21 17.06 С 4 н/о н/о +18.9 +14.0 73 +20 +20 1018.3 999.1
22 17.06 н/о н/о +17.5 +13.6 78 1018.3 999.0
23 17.06 н/о н/о +16.1 +13.4 84 1018.3 998.9
00 18.06 СВ 1 н/о н/о +15.4 +13.1 86 +16 +16 1018.2 998.8
01 18.06 н/о н/о +14.1 +12.3 89 1018.2 998.7
02 18.06 СВ 1 н/о н/о +14.0 +12.2 89 +14 +14 1017.9 998.4
03 18.06 С 1 н/о н/о +13.8 +11.8 88 +14 +14 1018.0 998.5
04 18.06 40 км 3/0
[Ac lent Ci fib]
+14.4 +12.4 88 1018.0 998.5
05 18.06 С 3 40 км 3/0
[Ac lent Ci sp]
+17.4 +12.9 75 +17 +19 1018.1 998.8
06 18.06 С 2 40 км 3/0
[Ac lent Ci fib]
+19.8 +12.8 64 +22 +27 комфорт 1018.0 998.9 +13.1
07 18.06 40 км 4/1 1110 м
[Cu hum Ci fib]
+22.4 +12.9 55 1017.9 998.9
08 18.06 40 км 3/1 1300 м
[Cu hum Ci sp]
+23.9 +12.9 50 1017.5 998.6
09 18.06 нст 2 40 км 3/1 1350 м
[Cu med, cong Ci sp]
+25.4 +14.2 50 +28 +41 жарко 1017.2 998.4
10 18.06 Ю 2 40 км 4/1 1440 м
[Cu med, cong Ci fib]
+26.1 +13.6 46 +28 +43 жарко 1016.9 998.2
11 18.06 40 км 4/1 1500 м
[Cu med, cong Ci fib]
+26.4 +12.5 42 1016.5 997.8
12 18.06 нст 2 40 км 5/1 1500 м
[Cu med, cong Ci fib]
+27.6 +12.0 38 +29 +43 жарко 1016.0 997.4
13 18.06 40 км 5/3 1500 м
[Cu med, cong Ci fib]
+27.6 +12.8 40 1015.5 996.9
14 18.06 Ю 3 40 км 5/3 1500 м
[Cu med, cong Ci sp]
+27.3 +12.6 40 +29 +35 жарко 1015.0 996.4
15 18.06 нст 2 40 км 5/1 1500 м
[Cu med, cong Ci sp]
+29.1 +14.2 40 +31 +37 жарко 1014.3 995.8
17 18.06 ЮВ 2 40 км 5/1 1500 м
[Cu med, cong Ci sp]
+27.6 +13.9 43 +30 +31 жарко 1013.9 995.3
18 18.06 Ю 2 40 км 4/1 1500 м
[Sc diur, vesp Ci sp]
+26.4 +14.9 49 +29 +29 жарко 1014.0 995.4 +29.2
19 18.06 В 2 40 км 4/1 1500 м
[Sc diur, vesp Ci sp]
+23.6 +16.6 65 +27 +27 жарко 1014.6 995.8
20 18.06 В 1 40 км 3/1 1500 м
[Sc diur, vesp Ci sp]
+21.6 +15.9 70 +25 +25 комфорт 1014.9 996.0
21 18.06 С 1 н/о н/о +20.1 +15.5 75 +24 +24 комфорт 1015.0 996.0
22 18.06 С 2 н/о н/о +18.4 +15.5 83 +19 +19 1014.9 995.8

 

Местоположение метеостанции Пьештяни (Словакия): широта 48.62 долгота 17.83 высота над уровнем моря 164 м.

В архиве по умолчанию представлена погода в Пьештяни за последнюю неделю. Архивные данные за месяц целиком и за предыдущие месяцы, начиная с января 2011 года, Вы можете получить, выбрав интересующий диапазон дат из раскрывающегося списка и нажав кнопку "Ввод!".


*Определитесь, кто Вы:
робот инопланетянин человек

Внимание! Время в таблицах - всемирное. Для получения местного времени необходимо прибавить поправку, которая равна 1 ч.

Смотрите также архив погоды в соседних городах и на ближайших метеорологических станциях:

Погода в Ясловске Богунице (Словакия) (20 км)
Погода в Нитре (Словакия) (44 км)
Погода в Малацки (Словакия) (56 км)
Погода в Прьевидзе (Словакия) (59 км)
Погода в Моховце (Словакия) (59 км)
Погода в Малом Яровнику (Словакия) (65 км)
Погода в Братиславе (Словакия) (66 км)
Погода в Братислава-Колибе (Словакия) (72 км)
Погода в Жьяр-над-Гроном (Словакия) (75 км)
Погода в Холесове (Чехия) (80 км)

Пояснения к столбцам:

Ветер - указаны скорость ветра в м/с - средняя за 10 мин, порывы в срок и между сроками (в фигурных скобках) и направление, откуда дует ветер: С - северный, СВ - северо-восточный, В - восточный, ЮВ - юго-восточный, Ю - южный, ЮЗ - юго-западный, З - западный, СЗ - северо-западный.
Видимость - горизонтальная дальность видимости в метрах или километрах. При видимости от 1 до 10 км при отсутствии осадков обычно наблюдается дымка, при ухудшении видимости до 1 км и менее - туман. В сухую погоду видимость может ухудшаться дымом, пылью или мглою.
Явления - указаны атмосферные явления, наблюдавшиеся в срок или в последний час перед сроком; фигурными скобками обозначены явления, наблюдавшиеся между сроками (за 1-3 часа до срока); квадратными скобками обозначены град или гололедные отложения с указанием их диаметра в мм.
Облачность - указаны через наклонную черту общая и нижняя облачность в баллах и высота нижней границы облаков в метрах; квадратными скобками обозначены формы облаков: Ci - перистые, Cs - перисто-слоистые, Cc - перисто-кучевые, Ac - высококучевые, As - высокослоистые, Sc - слоисто-кучевые, Ns - слоисто-дождевые, Cu - кучевые, Cb - кучево-дождевые. Подробнее классификацию облаков см. в Атласе облаков (PDF).
T - Температура воздуха - температура, измеренная на высоте 2 м над землей.
Td - Температура точки росы - температура, при понижении до которой содержащийся в воздухе водяной пар достигнет насыщения.
f - Относительная влажность воздуха - влажноcть воздуха, измеренная на высоте 2 м над землей.
Te - Эффективная температура - температура, которую ощущает одетый по сезону человек в тени. Характеристика душности погоды. При расчете учитывается влияние влажности воздуха и скорости ветра на теплоощущения человека.
Tes - Эффективная температура на солнце - температура, которую ощущает человек, с поправкой на солнечный нагрев. Характеристика знойности погоды. Зависит от высоты солнца над горизонтом, облачности и скорости ветра. Ночью, в пасмурную погоду, а также при ветре 12 м/с и более поправка равна нулю.
P - Атмосферное давление - приведенное к уровню моря атмосферное давление.
Po - Атмосферное давление - измеренное на уровне метеостанции атмосферное давление.
Tmin - Минимальная температура - минимум температуры воздуха на высоте 2 м над землей.
Tmax - Максимальная температура - максимум температуры воздуха на высоте 2 м над землей.
R - Количество осадков - Количество выпавших осадков за период времени, мм. При наведении курсора мыши на число - период времени, за который выпало указанное количество осадков.
R24 - Количество осадков - Количество выпавших осадков за 24 часа, мм.
S - Снежный покров - Высота снежного покрова, см. При наведении курсора мыши на число - состояние снежного покрова и степень покрытия местности в баллах.